Mumbai, India

1:23 PM IST on August 28, 2016 (GMT +0530)
Chhatrapati Shivaji International

Weather History for VABB - November, 2012

Change the Weather History Date:

Friday, November 30, 2012

  Actual Average Record
Temperature  
Mean Temperature 73 °F -  
Max Temperature 87 °F 88 °F 98 °F (1999)
Min Temperature 59 °F 68 °F 59 °F (2012)
Cooling Degree Days 8    
Growing Degree Days 23 (Base 50)    
Moisture  
Dew Point 61 °F    
Average Humidity 57    
Maximum Humidity 85    
Minimum Humidity 30    
Precipitation  
Precipitation 0.00 in - - ()
Sea Level Pressure  
Sea Level Pressure 29.87 in    
Wind  
Wind Speed 5 mph ()    
Max Wind Speed 14 mph    
Max Gust Speed -    
Visibility 1.9 miles    
Events      
Averages and records for this station are not official NWS values.
T = Trace of Precipitation, MM = Missing Value Source: Averaged Metar Reports

Daily Weather History Graph

Daily Weather History Graph

Search for Another Location

Airport or City:

Trip Planner

Search our weather history database for the weather conditions in past years. The results will help you decide how hot, cold, wet, or windy it might be!

Date:

Astronomy

Nov. 30, 2012 Rise Set
Actual Time 6:55 AM IST 5:59 PM IST
Civil Twilight 6:31 AM IST 6:23 PM IST
Nautical Twilight 6:04 AM IST 6:50 PM IST
Astronomical Twilight 5:37 AM IST 7:16 PM IST
Moon 7:29 PM IST (11/30) 8:06 AM IST (11/30)
Length of Visible Light 11h 51m
Length of Day
11h 04m
Full, 98% of the Moon is Illuminated
Nov 30
Full
Dec 6
Last Quarter
Dec 13
New
Dec 20
First Quarter
Dec 28
Full

Hourly Weather History & Observations

Time (IST) Temp. Heat Index Dew Point Humidity Pressure Visibility Wind Dir Wind Speed Gust Speed Precip Events Conditions
12:10 AM 71.6 °F - 60.8 °F 69% 29.89 in 1.6 mi Calm Calm - N/A   Haze
12:40 AM 69.8 °F - 59.0 °F 68% 29.89 in 1.4 mi ENE 3.5 mph - N/A   Haze
1:10 AM 73.4 °F - 62.6 °F 69% 29.89 in 1.6 mi WNW 4.6 mph - N/A   Haze
1:40 AM 73.4 °F - 60.8 °F 65% 29.89 in 1.6 mi NNW 5.8 mph - N/A   Haze
2:40 AM 73.4 °F - 57.2 °F 57% 29.89 in 1.9 mi NE 5.8 mph - N/A   Haze
3:10 AM 69.8 °F - 57.2 °F 64% 29.86 in 1.9 mi Calm Calm - N/A   Haze
3:40 AM 69.8 °F - 57.2 °F 64% 29.86 in 1.6 mi NE 4.6 mph - N/A   Haze
4:10 AM 69.8 °F - 57.2 °F 64% 29.86 in 1.6 mi Calm Calm - N/A   Haze
4:40 AM 69.8 °F - 59.0 °F 68% 29.86 in 1.4 mi Calm Calm - N/A   Haze
5:10 AM 69.8 °F - 60.8 °F 73% 29.86 in 1.3 mi Calm Calm - N/A   Haze
5:30 AM 61 °F - 58 °F 85% 29.88 in 1 mi Calm Calm - -   Haze
5:40 AM 68.0 °F - 59.0 °F 73% 29.89 in 1.3 mi East 3.5 mph - N/A   Haze
6:10 AM 68.0 °F - 59.0 °F 73% 29.89 in 1.4 mi East 3.5 mph - N/A   Haze
6:40 AM 69.8 °F - 57.2 °F 64% 29.89 in 1.2 mi NE 5.8 mph - N/A   Haze
7:10 AM 69.8 °F - 59.0 °F 68% 29.89 in 1.1 mi ESE 3.5 mph - N/A   Haze
8:30 AM 66 °F - 60 °F 76% 29.92 in 1 mi Calm Calm - -   Smoke
10:10 AM 82.4 °F 82.0 °F 57.2 °F 42% 29.95 in 1.6 mi NNE 4.6 mph - N/A   Smoke
10:40 AM 84.2 °F 83.0 °F 55.4 °F 37% 29.95 in 1.6 mi NNW 6.9 mph - N/A   Smoke
11:10 AM 84.2 °F 83.5 °F 57.2 °F 40% 29.92 in 1.6 mi North 5.8 mph - N/A   Smoke
11:30 AM 85 °F - 58 °F 30% 29.92 in 1 mi North 3.5 mph - -   Smoke
12:10 PM 86.0 °F 84.9 °F 57.2 °F 37% 29.89 in 2.5 mi NNW 8.1 mph - N/A   Smoke
12:40 PM 87.8 °F 86.5 °F 57.2 °F 35% 29.89 in 2.5 mi North 9.2 mph - N/A   Smoke
1:10 PM 87.8 °F 87.6 °F 60.8 °F 40% 29.86 in 2.5 mi NNW 11.5 mph - N/A   Smoke
1:40 PM 87.8 °F 88.5 °F 62.6 °F 43% 29.86 in 2.5 mi WNW 11.5 mph - N/A   Smoke
2:10 PM 86.0 °F 87.3 °F 64.4 °F 48% 29.83 in 2.5 mi WNW 12.7 mph - N/A   Smoke
2:30 PM 86 °F - 64 °F 38% 29.83 in 1 mi NW 6.9 mph - -   Smoke
2:40 PM 86.0 °F 87.3 °F 64.4 °F 48% 29.83 in - WNW 12.7 mph - N/A   Smoke
3:40 PM 84.2 °F 84.4 °F 60.8 °F 45% 29.83 in 3.1 mi NNW 13.8 mph - N/A   Smoke
4:10 PM 84.2 °F 84.4 °F 60.8 °F 45% 29.83 in 3.1 mi NNW 10.4 mph - N/A   Smoke
4:40 PM 84.2 °F 84.4 °F 60.8 °F 45% 29.83 in 3.1 mi NW 12.7 mph - N/A   Smoke
5:10 PM 82.4 °F 82.9 °F 60.8 °F 48% 29.83 in 3.1 mi NNW 11.5 mph - N/A   Smoke
5:30 PM 81 °F - 62 °F 43% 29.83 in 1 mi NW 9.2 mph - -   Smoke
5:40 PM 80.6 °F 81.8 °F 62.6 °F 54% 29.83 in 2.5 mi NW 11.5 mph - N/A   Smoke
6:10 PM 80.6 °F 81.8 °F 62.6 °F 54% 29.83 in 2.5 mi NW 10.4 mph - N/A   Smoke
7:10 PM 78.8 °F - 64.4 °F 61% 29.86 in 2.2 mi NW 6.9 mph - N/A   Smoke
7:40 PM 78.8 °F - 64.4 °F 61% 29.86 in 2.5 mi NNW 5.8 mph - N/A   Smoke
8:10 PM 78.8 °F - 64.4 °F 61% 29.86 in 2.8 mi NNW 6.9 mph - N/A   Smoke
8:30 PM 77 °F - 64 °F 56% 29.88 in 1 mi NNW 9.2 mph - -   Smoke
8:40 PM 78.8 °F - 64.4 °F 61% 29.89 in 2.5 mi NNW 9.2 mph - N/A   Smoke
9:10 PM 77.0 °F - 64.4 °F 65% 29.89 in 2.2 mi NNE 4.6 mph - N/A   Smoke
9:40 PM 77.0 °F - 62.6 °F 61% 29.89 in 2.2 mi NNW 5.8 mph - N/A   Smoke
10:10 PM 77.0 °F - 62.6 °F 61% 29.89 in 2.2 mi North 5.8 mph - N/A   Smoke
10:40 PM 77.0 °F - 60.8 °F 57% 29.89 in 2.2 mi SSE 5.8 mph - N/A   Smoke
11:10 PM 77.0 °F - 62.6 °F 61% 29.89 in 2.2 mi NNE 3.5 mph - N/A   Smoke
11:30 PM 69 °F - 62 °F 73% 29.89 in 1 mi Calm Calm - -   Haze
11:40 PM 77.0 °F - 62.6 °F 61% 29.89 in 2.2 mi North 3.5 mph - N/A   Smoke